| time (UTC) | temp F | wind direction | speed MPH | gust MPH | rain 1hr in | rain 24hr in | rain mn in | humidity % | barometer mb |
| 20260906212329 | 77 | 225 | 0.0 | 2.0 | 0.00 | 0.00 | 0.00 | 75 | 1015.9 |
| 20260906211832 | 78 | 225 | 0.0 | 2.0 | 0.00 | 0.00 | 0.00 | 75 | 1015.9 |
| 20260906211344 | 78 | 205 | 0.0 | 2.0 | 0.00 | 0.00 | 0.00 | 75 | 1015.8 |
| 20260906210817 | 78 | 227 | 0.0 | 2.0 | 0.00 | 0.00 | 0.00 | 75 | 1015.8 |
| 20260906210345 | 78 | 194 | 0.0 | 4.0 | 0.00 | 0.00 | 0.00 | 75 | 1015.9 |
| 20260906205832 | 78 | 242 | 0.0 | 4.0 | 0.00 | 0.00 | 0.00 | 75 | 1016.2 |
| 20260906205333 | 78 | 214 | 0.0 | 1.0 | 0.00 | 0.00 | 0.00 | 75 | 1016.3 |
| 20260906204838 | 79 | 208 | 0.0 | 1.0 | 0.00 | 0.00 | 0.00 | 75 | 1016.2 |
| 20260906204349 | 79 | 199 | 0.0 | 1.0 | 0.00 | 0.00 | 0.00 | 75 | 1016.4 |
| 20260906203832 | 79 | 207 | 0.0 | 0.0 | 0.00 | 0.00 | 0.00 | 74 | 1016.5 |
| 20260906203404 | 79 | 230 | 0.0 | 0.0 | 0.00 | 0.00 | 0.00 | 74 | 1016.4 |
| 20260906202855 | 79 | 205 | 0.0 | 0.0 | 0.00 | 0.00 | 0.00 | 73 | 1016.6 |
| 20260906202337 | 79 | 209 | 0.0 | 1.0 | 0.00 | 0.00 | 0.00 | 74 | 1016.7 |
| 20260906201819 | 79 | 207 | 0.0 | 1.0 | 0.00 | 0.00 | 0.00 | 74 | 1016.7 |
| 20260906201333 | 79 | 191 | 0.0 | 1.0 | 0.00 | 0.00 | 0.00 | 74 | 1016.5 |
| 20260906200827 | 79 | 215 | 0.0 | 0.0 | 0.00 | 0.00 | 0.00 | 74 | 1016.4 |
| 20260906200331 | 79 | 192 | 0.0 | 0.0 | 0.00 | 0.00 | 0.00 | 74 | 1016.3 |
| 20260906195855 | 79 | 200 | 0.0 | 1.0 | 0.00 | 0.00 | 0.00 | 74 | 1016.3 |
| 20260906195337 | 79 | 192 | 0.0 | 1.0 | 0.00 | 0.00 | 0.00 | 74 | 1016.2 |
| 20260906194837 | 79 | 225 | 0.0 | 0.0 | 0.00 | 0.00 | 0.00 | 74 | 1016.1 |
| 20260906194329 | 79 | 207 | 0.0 | 4.0 | 0.00 | 0.00 | 0.00 | 74 | 1016.0 |
| 20260906193832 | 79 | 207 | 0.0 | 1.0 | 0.00 | 0.00 | 0.00 | 75 | 1015.9 |
| 20260906193317 | 79 | 151 | 0.0 | 1.0 | 0.00 | 0.00 | 0.00 | 74 | 1015.9 |
| 20260906192827 | 79 | 174 | 0.0 | 1.0 | 0.00 | 0.00 | 0.00 | 74 | 1015.8 |
| 20260906192400 | 79 | 174 | 0.0 | 0.0 | 0.00 | 0.00 | 0.00 | 73 | 1015.9 |
| 20260906191843 | 79 | 153 | 0.0 | 0.0 | 0.00 | 0.00 | 0.00 | 74 | 1015.9 |
| 20260906191329 | 79 | 217 | 0.0 | 1.0 | 0.00 | 0.00 | 0.00 | 73 | 1015.7 |
| 20260906190858 | 79 | 213 | 0.0 | 0.0 | 0.00 | 0.00 | 0.00 | 73 | 1015.9 |
| 20260906190340 | 79 | 131 | 0.0 | 0.0 | 0.00 | 0.00 | 0.00 | 73 | 1015.9 |
| 20260906185825 | 79 | 169 | 0.0 | 0.0 | 0.00 | 0.00 | 0.00 | 73 | 1015.9 |
| 20260906185329 | 79 | 201 | 0.0 | 0.0 | 0.00 | 0.00 | 0.00 | 73 | 1016.0 |
| 20260906184829 | 79 | 132 | 0.0 | 0.0 | 0.00 | 0.00 | 0.00 | 73 | 1016.0 |
| 20260906184333 | 79 | 162 | 0.0 | 0.0 | 0.00 | 0.00 | 0.00 | 74 | 1015.9 |
| 20260906183818 | 79 | 194 | 0.0 | 0.0 | 0.00 | 0.00 | 0.00 | 74 | 1015.9 |
| 20260906183321 | 79 | 114 | 0.0 | 0.0 | 0.00 | 0.00 | 0.00 | 74 | 1015.9 |
| 20260906182836 | 79 | 213 | 0.0 | 0.0 | 0.00 | 0.00 | 0.00 | 74 | 1016.0 |
| 20260906182332 | 79 | 172 | 0.0 | 1.0 | 0.00 | 0.00 | 0.00 | 74 | 1016.1 |
| 20260906181818 | 79 | 117 | 0.0 | 2.0 | 0.00 | 0.00 | 0.00 | 73 | 1016.2 |
| 20260906181339 | 79 | 237 | 0.0 | 2.0 | 0.00 | 0.00 | 0.00 | 74 | 1016.2 |
| 20260906180841 | 79 | 92 | 0.0 | 1.0 | 0.00 | 0.00 | 0.00 | 73 | 1016.0 |
| 20260906180318 | 79 | 154 | 0.0 | 1.0 | 0.00 | 0.00 | 0.00 | 73 | 1016.0 |
| 20260906175831 | 80 | 119 | 0.0 | 1.0 | 0.00 | 0.00 | 0.00 | 72 | 1015.9 |
| 20260906175333 | 80 | 191 | 0.0 | 2.0 | 0.00 | 0.00 | 0.00 | 73 | 1016.1 |
| 20260906174837 | 80 | 212 | 0.0 | 2.0 | 0.00 | 0.00 | 0.00 | 73 | 1016.1 |
| 20260906174325 | 80 | 213 | 0.0 | 1.0 | 0.00 | 0.00 | 0.00 | 73 | 1016.0 |
| 20260906173829 | 80 | 173 | 0.0 | 1.0 | 0.00 | 0.00 | 0.00 | 72 | 1016.0 |
| 20260906173342 | 80 | 203 | 0.0 | 1.0 | 0.00 | 0.00 | 0.00 | 72 | 1016.1 |
| 20260906172830 | 80 | 205 | 0.0 | 2.0 | 0.00 | 0.00 | 0.00 | 72 | 1016.0 |
| 20260906172354 | 80 | 202 | 0.0 | 2.0 | 0.00 | 0.00 | 0.00 | 73 | 1015.9 |
| 20260906171836 | 79 | 130 | 0.0 | 0.0 | 0.00 | 0.00 | 0.00 | 74 | 1016.0 |
| 20260906171329 | 79 | 129 | 0.0 | 2.0 | 0.00 | 0.00 | 0.00 | 74 | 1016.2 |
| 20260906170859 | 79 | 124 | 0.0 | 1.0 | 0.00 | 0.00 | 0.00 | 74 | 1016.2 |
| 20260906170341 | 79 | 115 | 0.0 | 1.0 | 0.00 | 0.00 | 0.00 | 74 | 1016.2 |
| 20260906165823 | 79 | 139 | 0.0 | 1.0 | 0.00 | 0.00 | 0.00 | 75 | 1016.2 |
| 20260906165357 | 79 | 207 | 0.0 | 1.0 | 0.00 | 0.00 | 0.00 | 75 | 1016.4 |
| 20260906164833 | 79 | 161 | 0.0 | 1.0 | 0.00 | 0.00 | 0.00 | 75 | 1016.4 |
| 20260906164317 | 79 | 84 | 0.0 | 2.0 | 0.00 | 0.00 | 0.00 | 75 | 1016.4 |
| 20260906163820 | 79 | 191 | 0.0 | 2.0 | 0.00 | 0.00 | 0.00 | 76 | 1016.4 |
| 20260906163332 | 79 | 190 | 0.0 | 1.0 | 0.00 | 0.00 | 0.00 | 76 | 1016.5 |
| 20260906162819 | 78 | 160 | 0.0 | 1.0 | 0.00 | 0.00 | 0.00 | 76 | 1016.6 |
| 20260906162319 | 78 | 208 | 0.0 | 1.0 | 0.00 | 0.00 | 0.00 | 76 | 1016.4 |
| 20260906161830 | 78 | 143 | 0.0 | 1.0 | 0.00 | 0.00 | 0.00 | 77 | 1016.5 |
| 20260906161341 | 78 | 160 | 0.0 | 1.0 | 0.00 | 0.00 | 0.00 | 77 | 1016.4 |
| 20260906160845 | 78 | 167 | 0.0 | 1.0 | 0.00 | 0.00 | 0.00 | 78 | 1016.4 |
| 20260906160343 | 77 | 186 | 0.0 | 1.0 | 0.00 | 0.00 | 0.00 | 77 | 1016.6 |
| 20260906155828 | 78 | 120 | 0.0 | 1.0 | 0.00 | 0.00 | 0.00 | 77 | 1016.6 |
| 20260906155332 | 78 | 134 | 0.0 | 1.0 | 0.00 | 0.00 | 0.00 | 77 | 1016.7 |
| 20260906154844 | 77 | 169 | 0.0 | 0.0 | 0.00 | 0.00 | 0.00 | 77 | 1016.7 |
| 20260906154331 | 77 | 257 | 0.0 | 1.0 | 0.00 | 0.00 | 0.00 | 78 | 1016.7 |
| 20260906153835 | 77 | 188 | 0.0 | 1.0 | 0.00 | 0.00 | 0.00 | 78 | 1016.6 |
| 20260906153337 | 77 | 131 | 0.0 | 1.0 | 0.00 | 0.00 | 0.00 | 78 | 1016.6 |
| 20260906152831 | 77 | 230 | 0.0 | 0.0 | 0.00 | 0.00 | 0.00 | 78 | 1016.7 |
| 20260906152333 | 77 | 117 | 0.0 | 1.0 | 0.00 | 0.00 | 0.00 | 79 | 1016.8 |
| 20260906151837 | 77 | 234 | 0.0 | 1.0 | 0.00 | 0.00 | 0.00 | 78 | 1016.9 |
| 20260906151322 | 77 | 180 | 0.0 | 1.0 | 0.00 | 0.00 | 0.00 | 79 | 1017.0 |
| 20260906150834 | 77 | 149 | 0.0 | 1.0 | 0.00 | 0.00 | 0.00 | 80 | 1017.0 |
| 20260906150334 | 76 | 209 | 0.0 | 0.0 | 0.00 | 0.00 | 0.00 | 81 | 1016.9 |
| 20260906145821 | 76 | 213 | 0.0 | 0.0 | 0.00 | 0.00 | 0.00 | 82 | 1016.8 |
| 20260906145332 | 76 | 204 | 0.0 | 0.0 | 0.00 | 0.00 | 0.00 | 82 | 1016.8 |
| 20260906144844 | 75 | 217 | 0.0 | 0.0 | 0.00 | 0.00 | 0.00 | 82 | 1016.8 |
| 20260906144325 | 75 | 164 | 0.0 | 0.0 | 0.00 | 0.00 | 0.00 | 83 | 1016.7 |
| 20260906143838 | 75 | 207 | 0.0 | 1.0 | 0.00 | 0.00 | 0.00 | 83 | 1016.7 |
| 20260906143342 | 75 | 179 | 0.0 | 1.0 | 0.00 | 0.00 | 0.00 | 84 | 1016.6 |
| 20260906142829 | 74 | 173 | 0.0 | 0.0 | 0.00 | 0.00 | 0.00 | 85 | 1016.6 |
| 20260906142328 | 74 | 142 | 0.0 | 0.0 | 0.00 | 0.00 | 0.00 | 85 | 1016.6 |
| 20260906141832 | 74 | 200 | 0.0 | 0.0 | 0.00 | 0.00 | 0.00 | 87 | 1016.6 |
| 20260906141318 | 73 | 187 | 0.0 | 0.0 | 0.00 | 0.00 | 0.00 | 88 | 1016.7 |
| 20260906140850 | 73 | 191 | 0.0 | 1.0 | 0.00 | 0.00 | 0.00 | 88 | 1016.7 |
| 20260906140327 | 72 | 179 | 0.0 | 1.0 | 0.00 | 0.00 | 0.00 | 88 | 1016.6 |
| 20260906135820 | 72 | 155 | 0.0 | 0.0 | 0.00 | 0.00 | 0.00 | 88 | 1016.7 |
| 20260906135324 | 72 | 156 | 0.0 | 0.0 | 0.00 | 0.00 | 0.00 | 88 | 1016.7 |
| 20260906134856 | 72 | 114 | 0.0 | 0.0 | 0.00 | 0.00 | 0.00 | 88 | 1016.7 |
| 20260906134317 | 71 | 128 | 0.0 | 0.0 | 0.00 | 0.00 | 0.00 | 88 | 1016.8 |
| 20260906133828 | 71 | 126 | 0.0 | 0.0 | 0.00 | 0.00 | 0.00 | 88 | 1016.7 |
| 20260906133331 | 71 | 132 | 0.0 | 0.0 | 0.00 | 0.00 | 0.00 | 87 | 1016.6 |
| 20260906132818 | 70 | 136 | 0.0 | 0.0 | 0.00 | 0.00 | 0.00 | 87 | 1016.6 |
| 20260906132319 | 70 | 134 | 0.0 | 0.0 | 0.00 | 0.00 | 0.00 | 87 | 1016.5 |
| 20260906131831 | 70 | 138 | 0.0 | 0.0 | 0.00 | 0.00 | 0.00 | 87 | 1016.5 |
| 20260906131343 | 69 | 120 | 0.0 | 1.0 | 0.00 | 0.00 | 0.00 | 87 | 1016.5 |
| 20260906130825 | 69 | 130 | 0.0 | 0.0 | 0.00 | 0.00 | 0.00 | 87 | 1016.5 |
| 20260906130331 | 69 | 117 | 0.0 | 0.0 | 0.00 | 0.00 | 0.00 | 88 | 1016.6 |
| 20260906125835 | 69 | 136 | 0.0 | 0.0 | 0.00 | 0.00 | 0.00 | 87 | 1016.5 |
| 20260906125338 | 69 | 121 | 0.0 | 0.0 | 0.00 | 0.00 | 0.00 | 87 | 1016.5 |
| 20260906124841 | 68 | 128 | 0.0 | 0.0 | 0.00 | 0.00 | 0.00 | 87 | 1016.5 |
| 20260906124321 | 68 | 126 | 0.0 | 0.0 | 0.00 | 0.00 | 0.00 | 87 | 1016.4 |
| 20260906123824 | 68 | 148 | 0.0 | 0.0 | 0.00 | 0.00 | 0.00 | 87 | 1016.4 |
| 20260906123328 | 68 | 154 | 0.0 | 0.0 | 0.00 | 0.00 | 0.00 | 88 | 1016.4 |
| 20260906122845 | 68 | 113 | 0.0 | 0.0 | 0.00 | 0.00 | 0.00 | 88 | 1016.4 |
| 20260906122345 | 68 | 134 | 0.0 | 0.0 | 0.00 | 0.00 | 0.00 | 88 | 1016.4 |
| 20260906121818 | 68 | 127 | 0.0 | 0.0 | 0.00 | 0.00 | 0.00 | 88 | 1016.4 |
| 20260906121340 | 68 | 126 | 0.0 | 0.0 | 0.00 | 0.00 | 0.00 | 88 | 1016.4 |
| 20260906120855 | 67 | 158 | 0.0 | 0.0 | 0.00 | 0.00 | 0.00 | 88 | 1016.4 |
| 20260906120403 | 67 | 159 | 0.0 | 0.0 | 0.00 | 0.00 | 0.00 | 88 | 1016.4 |
| 20260906115836 | 67 | 159 | 0.0 | 0.0 | 0.00 | 0.00 | 0.00 | 88 | 1016.5 |
| 20260906115338 | 67 | 159 | 0.0 | 0.0 | 0.00 | 0.00 | 0.00 | 88 | 1016.4 |
| 20260906114823 | 67 | 159 | 0.0 | 0.0 | 0.00 | 0.00 | 0.00 | 88 | 1016.3 |
| 20260906114330 | 67 | 159 | 0.0 | 0.0 | 0.00 | 0.00 | 0.00 | 88 | 1016.2 |
| 20260906113834 | 67 | 159 | 0.0 | 0.0 | 0.00 | 0.00 | 0.00 | 88 | 1016.1 |
| 20260906113338 | 67 | 159 | 0.0 | 0.0 | 0.00 | 0.00 | 0.00 | 88 | 1016.1 |
| 20260906112825 | 68 | 160 | 0.0 | 0.0 | 0.00 | 0.00 | 0.00 | 88 | 1016.1 |
| 20260906112353 | 68 | 160 | 0.0 | 0.0 | 0.00 | 0.00 | 0.00 | 88 | 1016.2 |
| 20260906111834 | 68 | 160 | 0.0 | 0.0 | 0.00 | 0.00 | 0.00 | 88 | 1016.3 |
| 20260906111320 | 68 | 160 | 0.0 | 0.0 | 0.00 | 0.00 | 0.00 | 88 | 1016.2 |
| 20260906110835 | 68 | 160 | 0.0 | 0.0 | 0.00 | 0.00 | 0.00 | 88 | 1016.1 |
| 20260906110334 | 68 | 160 | 0.0 | 0.0 | 0.00 | 0.00 | 0.00 | 88 | 1016.2 |
| 20260906105847 | 68 | 160 | 0.0 | 0.0 | 0.00 | 0.00 | 0.00 | 88 | 1016.1 |
| 20260906105330 | 68 | 160 | 0.0 | 0.0 | 0.00 | 0.00 | 0.00 | 88 | 1016.0 |
| 20260906104843 | 68 | 160 | 0.0 | 0.0 | 0.00 | 0.00 | 0.00 | 88 | 1015.9 |
| 20260906104326 | 68 | 148 | 0.0 | 0.0 | 0.00 | 0.00 | 0.00 | 88 | 1015.8 |
| 20260906103834 | 68 | 139 | 0.0 | 0.0 | 0.00 | 0.00 | 0.00 | 88 | 1015.7 |
| 20260906103338 | 68 | 130 | 0.0 | 0.0 | 0.00 | 0.00 | 0.00 | 88 | 1015.6 |
| 20260906102825 | 68 | 130 | 0.0 | 0.0 | 0.00 | 0.00 | 0.00 | 88 | 1015.6 |
| 20260906102326 | 68 | 129 | 0.0 | 0.0 | 0.00 | 0.00 | 0.00 | 88 | 1015.6 |
| 20260906101857 | 69 | 129 | 0.0 | 0.0 | 0.00 | 0.00 | 0.00 | 88 | 1015.7 |
| 20260906101338 | 69 | 129 | 0.0 | 0.0 | 0.00 | 0.00 | 0.00 | 88 | 1015.8 |
| 20260906100841 | 69 | 129 | 0.0 | 0.0 | 0.00 | 0.00 | 0.00 | 88 | 1015.8 |
| 20260906100319 | 69 | 129 | 0.0 | 0.0 | 0.00 | 0.00 | 0.00 | 88 | 1015.9 |
| 20260906095837 | 69 | 129 | 0.0 | 0.0 | 0.00 | 0.00 | 0.00 | 88 | 1015.8 |
| 20260906095320 | 69 | 129 | 0.0 | 0.0 | 0.00 | 0.00 | 0.00 | 88 | 1015.7 |
| 20260906094854 | 69 | 116 | 0.0 | 0.0 | 0.00 | 0.00 | 0.00 | 88 | 1015.6 |
| 20260906094342 | 69 | 115 | 0.0 | 0.0 | 0.00 | 0.00 | 0.00 | 88 | 1015.4 |
| 20260906093844 | 69 | 117 | 0.0 | 0.0 | 0.00 | 0.00 | 0.00 | 88 | 1015.3 |
| 20260906093329 | 69 | 117 | 0.0 | 0.0 | 0.00 | 0.00 | 0.00 | 88 | 1015.2 |
| 20260906092844 | 69 | 128 | 0.0 | 0.0 | 0.00 | 0.00 | 0.00 | 88 | 1015.1 |
| 20260906092324 | 70 | 128 | 0.0 | 0.0 | 0.00 | 0.00 | 0.00 | 88 | 1015.0 |
| 20260906091857 | 70 | 128 | 0.0 | 0.0 | 0.00 | 0.00 | 0.00 | 88 | 1015.1 |
| 20260906091322 | 70 | 130 | 0.0 | 0.0 | 0.00 | 0.00 | 0.00 | 88 | 1015.1 |
| 20260906090835 | 70 | 130 | 0.0 | 0.0 | 0.00 | 0.00 | 0.00 | 88 | 1015.0 |
| 20260906090336 | 70 | 130 | 0.0 | 0.0 | 0.00 | 0.00 | 0.00 | 88 | 1015.0 |
| 20260906085818 | 70 | 115 | 0.0 | 0.0 | 0.00 | 0.00 | 0.00 | 88 | 1015.0 |
| 20260906085322 | 70 | 113 | 0.0 | 0.0 | 0.00 | 0.00 | 0.00 | 88 | 1014.9 |
| 20260906084854 | 70 | 136 | 0.0 | 0.0 | 0.00 | 0.00 | 0.00 | 88 | 1014.9 |
| 20260906084342 | 70 | 138 | 0.0 | 0.0 | 0.00 | 0.00 | 0.00 | 88 | 1015.0 |
| 20260906083845 | 70 | 112 | 0.0 | 0.0 | 0.00 | 0.00 | 0.00 | 88 | 1015.1 |
| 20260906083359 | 70 | 111 | 0.0 | 0.0 | 0.00 | 0.00 | 0.00 | 88 | 1015.0 |
| 20260906082825 | 70 | 111 | 0.0 | 0.0 | 0.00 | 0.00 | 0.00 | 88 | 1015.0 |
| 20260906082323 | 70 | 111 | 0.0 | 0.0 | 0.00 | 0.00 | 0.00 | 88 | 1015.0 |
| 20260906081835 | 70 | 111 | 0.0 | 0.0 | 0.00 | 0.00 | 0.00 | 88 | 1015.1 |
| 20260906081338 | 70 | 111 | 0.0 | 0.0 | 0.00 | 0.00 | 0.00 | 88 | 1015.1 |
| 20260906080823 | 70 | 111 | 0.0 | 0.0 | 0.00 | 0.00 | 0.00 | 88 | 1015.0 |
| 20260906080337 | 70 | 110 | 0.0 | 0.0 | 0.00 | 0.00 | 0.00 | 87 | 1015.0 |
| 20260906075820 | 70 | 109 | 0.0 | 0.0 | 0.00 | 0.00 | 0.00 | 87 | 1015.0 |
| 20260906075323 | 70 | 116 | 0.0 | 0.0 | 0.00 | 0.00 | 0.00 | 87 | 1014.9 |
| 20260906074834 | 70 | 115 | 0.0 | 0.0 | 0.00 | 0.00 | 0.00 | 87 | 1015.0 |
| 20260906074347 | 70 | 115 | 0.0 | 0.0 | 0.00 | 0.00 | 0.00 | 87 | 1015.1 |
| 20260906073829 | 70 | 115 | 0.0 | 0.0 | 0.00 | 0.00 | 0.00 | 87 | 1015.2 |
| 20260906073321 | 70 | 115 | 0.0 | 0.0 | 0.00 | 0.00 | 0.00 | 87 | 1015.2 |
| 20260906072833 | 71 | 115 | 0.0 | 0.0 | 0.00 | 0.00 | 0.00 | 87 | 1015.1 |
| 20260906072316 | 71 | 115 | 0.0 | 0.0 | 0.00 | 0.00 | 0.00 | 87 | 1015.2 |
| 20260906071844 | 71 | 117 | 0.0 | 0.0 | 0.00 | 0.00 | 0.00 | 87 | 1015.1 |
| 20260906071357 | 71 | 119 | 0.0 | 0.0 | 0.00 | 0.00 | 0.00 | 87 | 1015.2 |
| 20260906070838 | 71 | 114 | 0.0 | 0.0 | 0.00 | 0.00 | 0.00 | 87 | 1015.3 |
| 20260906070321 | 71 | 157 | 0.0 | 0.0 | 0.00 | 0.00 | 0.00 | 87 | 1015.4 |
| 20260906065831 | 71 | 157 | 0.0 | 0.0 | 0.00 | 0.00 | 0.00 | 87 | 1015.4 |
| 20260906065334 | 71 | 157 | 0.0 | 0.0 | 0.00 | 0.00 | 0.00 | 87 | 1015.5 |
| 20260906064837 | 71 | 157 | 0.0 | 0.0 | 0.00 | 0.00 | 0.00 | 87 | 1015.5 |
| 20260906064352 | 71 | 157 | 0.0 | 0.0 | 0.00 | 0.00 | 0.00 | 87 | 1015.5 |
| 20260906063840 | 71 | 158 | 0.0 | 0.0 | 0.00 | 0.00 | 0.00 | 87 | 1015.5 |
| 20260906063345 | 71 | 158 | 0.0 | 0.0 | 0.00 | 0.00 | 0.00 | 87 | 1015.5 |
| 20260906062831 | 71 | 158 | 0.0 | 0.0 | 0.00 | 0.00 | 0.00 | 87 | 1015.5 |
| 20260906062343 | 71 | 158 | 0.0 | 0.0 | 0.00 | 0.00 | 0.00 | 87 | 1015.5 |
| 20260906061837 | 71 | 158 | 0.0 | 0.0 | 0.00 | 0.00 | 0.00 | 87 | 1015.5 |
| 20260906061351 | 71 | 158 | 0.0 | 0.0 | 0.00 | 0.00 | 0.00 | 87 | 1015.4 |
| 20260906060833 | 71 | 158 | 0.0 | 0.0 | 0.00 | 0.00 | 0.00 | 86 | 1015.4 |
| 20260906060317 | 72 | 158 | 0.0 | 0.0 | 0.00 | 0.00 | 0.00 | 86 | 1015.3 |
| 20260906055836 | 72 | 163 | 0.0 | 0.0 | 0.00 | 0.00 | 0.00 | 86 | 1015.3 |
| 20260906055340 | 72 | 163 | 0.0 | 0.0 | 0.00 | 0.00 | 0.00 | 86 | 1015.3 |
| 20260906054843 | 72 | 163 | 0.0 | 0.0 | 0.00 | 0.00 | 0.00 | 86 | 1015.3 |
| 20260906054337 | 72 | 163 | 0.0 | 0.0 | 0.00 | 0.00 | 0.00 | 86 | 1015.4 |
| 20260906053836 | 72 | 164 | 0.0 | 0.0 | 0.00 | 0.00 | 0.00 | 86 | 1015.4 |
| 20260906053339 | 72 | 162 | 0.0 | 0.0 | 0.00 | 0.00 | 0.00 | 86 | 1015.3 |
| 20260906052840 | 73 | 162 | 0.0 | 0.0 | 0.00 | 0.00 | 0.00 | 86 | 1015.3 |
| 20260906052344 | 73 | 163 | 0.0 | 0.0 | 0.00 | 0.00 | 0.00 | 86 | 1015.3 |
| 20260906051844 | 73 | 163 | 0.0 | 0.0 | 0.00 | 0.00 | 0.00 | 85 | 1015.4 |
| 20260906051329 | 73 | 163 | 0.0 | 0.0 | 0.00 | 0.00 | 0.00 | 85 | 1015.3 |
| 20260906050903 | 73 | 164 | 0.0 | 0.0 | 0.00 | 0.00 | 0.00 | 85 | 1015.4 |
| 20260906050345 | 73 | 165 | 0.0 | 0.0 | 0.00 | 0.00 | 0.00 | 84 | 1015.4 |
| 20260906045827 | 73 | 165 | 0.0 | 0.0 | 0.00 | 0.00 | 0.00 | 84 | 1015.5 |
| 20260906045331 | 73 | 165 | 0.0 | 0.0 | 0.00 | 0.00 | 0.00 | 83 | 1015.4 |
| 20260906044834 | 74 | 165 | 0.0 | 0.0 | 0.00 | 0.00 | 0.00 | 83 | 1015.4 |
| 20260906044319 | 74 | 165 | 0.0 | 0.0 | 0.00 | 0.00 | 0.00 | 83 | 1015.5 |
| 20260906043817 | 74 | 166 | 0.0 | 0.0 | 0.00 | 0.00 | 0.00 | 83 | 1015.4 |
| 20260906043319 | 74 | 165 | 0.0 | 0.0 | 0.00 | 0.00 | 0.00 | 82 | 1015.4 |
| 20260906042822 | 74 | 166 | 0.0 | 0.0 | 0.00 | 0.00 | 0.00 | 82 | 1015.5 |
| 20260906042326 | 74 | 166 | 0.0 | 0.0 | 0.00 | 0.00 | 0.00 | 81 | 1015.5 |
| 20260906041855 | 74 | 166 | 0.0 | 0.0 | 0.00 | 0.00 | 0.00 | 81 | 1015.5 |
| 20260906041347 | 75 | 166 | 0.0 | 0.0 | 0.00 | 0.00 | 0.00 | 81 | 1015.5 |
| 20260906040830 | 75 | 166 | 0.0 | 0.0 | 0.00 | 0.00 | 0.00 | 80 | 1015.5 |
| 20260906040334 | 75 | 166 | 0.0 | 0.0 | 0.00 | 0.00 | 0.00 | 80 | 1015.6 |
| 20260906035845 | 75 | 166 | 0.0 | 0.0 | 0.00 | 0.00 | 0.00 | 80 | 1015.5 |
| 20260906035328 | 75 | 166 | 0.0 | 0.0 | 0.00 | 0.00 | 0.00 | 80 | 1015.6 |
| 20260906034830 | 75 | 166 | 0.0 | 0.0 | 0.00 | 0.00 | 0.00 | 79 | 1015.5 |
| 20260906034344 | 75 | 167 | 0.0 | 0.0 | 0.00 | 0.00 | 0.00 | 79 | 1015.6 |
| 20260906033817 | 76 | 167 | 0.0 | 0.0 | 0.00 | 0.00 | 0.00 | 79 | 1015.6 |
| 20260906033320 | 76 | 167 | 0.0 | 0.0 | 0.00 | 0.00 | 0.00 | 79 | 1015.6 |
| 20260906032831 | 76 | 167 | 0.0 | 0.0 | 0.00 | 0.00 | 0.00 | 79 | 1015.7 |
| 20260906032333 | 76 | 167 | 0.0 | 0.0 | 0.00 | 0.00 | 0.00 | 79 | 1015.8 |
| 20260906031839 | 76 | 167 | 0.0 | 0.0 | 0.00 | 0.00 | 0.00 | 79 | 1015.8 |
| 20260906031326 | 76 | 167 | 0.0 | 0.0 | 0.00 | 0.00 | 0.00 | 79 | 1015.8 |
| 20260906030827 | 76 | 178 | 0.0 | 0.0 | 0.00 | 0.00 | 0.00 | 78 | 1015.8 |
| 20260906030330 | 76 | 182 | 0.0 | 0.0 | 0.00 | 0.00 | 0.00 | 78 | 1015.8 |
| 20260906025844 | 76 | 184 | 0.0 | 0.0 | 0.00 | 0.00 | 0.00 | 78 | 1015.9 |
| 20260906025344 | 76 | 184 | 0.0 | 0.0 | 0.00 | 0.00 | 0.00 | 78 | 1015.8 |
| 20260906024818 | 76 | 202 | 0.0 | 0.0 | 0.00 | 0.00 | 0.00 | 78 | 1015.6 |
| 20260906024338 | 76 | 202 | 0.0 | 0.0 | 0.00 | 0.00 | 0.00 | 78 | 1015.6 |
| 20260906023837 | 76 | 213 | 0.0 | 0.0 | 0.00 | 0.00 | 0.00 | 78 | 1015.8 |
| 20260906023340 | 76 | 192 | 0.0 | 0.0 | 0.00 | 0.00 | 0.00 | 78 | 1015.8 |
| 20260906022823 | 76 | 129 | 0.0 | 0.0 | 0.00 | 0.00 | 0.00 | 78 | 1015.6 |
| 20260906022333 | 76 | 128 | 0.0 | 0.0 | 0.00 | 0.00 | 0.00 | 78 | 1015.5 |
| 20260906021816 | 76 | 128 | 0.0 | 0.0 | 0.00 | 0.00 | 0.00 | 77 | 1015.4 |
| 20260906021324 | 76 | 130 | 0.0 | 0.0 | 0.00 | 0.00 | 0.00 | 77 | 1015.3 |
| 20260906020826 | 76 | 131 | 0.0 | 0.0 | 0.00 | 0.00 | 0.00 | 77 | 1015.3 |
| 20260906020329 | 77 | 132 | 0.0 | 0.0 | 0.00 | 0.00 | 0.00 | 77 | 1015.1 |
| 20260906015817 | 77 | 132 | 0.0 | 0.0 | 0.00 | 0.00 | 0.00 | 76 | 1014.9 |
| 20260906015347 | 77 | 132 | 0.0 | 0.0 | 0.00 | 0.00 | 0.00 | 76 | 1014.8 |
| 20260906014838 | 77 | 134 | 0.0 | 0.0 | 0.00 | 0.00 | 0.00 | 76 | 1014.6 |
| 20260906014332 | 77 | 142 | 0.0 | 0.0 | 0.00 | 0.00 | 0.00 | 76 | 1014.5 |
| 20260906013831 | 77 | 146 | 0.0 | 0.0 | 0.00 | 0.00 | 0.00 | 75 | 1014.3 |
| 20260906013334 | 77 | 123 | 0.0 | 0.0 | 0.00 | 0.00 | 0.00 | 75 | 1014.2 |
| 20260906012828 | 77 | 118 | 0.0 | 0.0 | 0.00 | 0.00 | 0.00 | 75 | 1014.0 |
| 20260906012331 | 78 | 119 | 0.0 | 0.0 | 0.00 | 0.00 | 0.00 | 75 | 1013.9 |
| 20260906011816 | 78 | 119 | 0.0 | 0.0 | 0.00 | 0.00 | 0.00 | 74 | 1013.8 |
| 20260906011333 | 78 | 119 | 0.0 | 0.0 | 0.00 | 0.00 | 0.00 | 74 | 1013.5 |
| 20260906010844 | 78 | 132 | 0.0 | 0.0 | 0.00 | 0.00 | 0.00 | 74 | 1013.6 |
| 20260906010318 | 78 | 133 | 0.0 | 0.0 | 0.00 | 0.00 | 0.00 | 74 | 1013.5 |
| 20260906005833 | 79 | 133 | 0.0 | 0.0 | 0.00 | 0.00 | 0.00 | 73 | 1013.5 |
| 20260906005334 | 79 | 133 | 0.0 | 0.0 | 0.00 | 0.00 | 0.00 | 73 | 1013.4 |
| 20260906004818 | 79 | 134 | 0.0 | 0.0 | 0.00 | 0.00 | 0.00 | 72 | 1013.2 |
| 20260906004335 | 79 | 134 | 0.0 | 0.0 | 0.00 | 0.00 | 0.00 | 72 | 1013.1 |
| 20260906003838 | 80 | 132 | 0.0 | 0.0 | 0.00 | 0.00 | 0.00 | 71 | 1013.2 |
| 20260906003337 | 80 | 132 | 0.0 | 0.0 | 0.00 | 0.00 | 0.00 | 71 | 1013.2 |
| 20260906002820 | 80 | 133 | 0.0 | 0.0 | 0.00 | 0.00 | 0.00 | 71 | 1013.1 |
| 20260906002330 | 80 | 136 | 0.0 | 0.0 | 0.00 | 0.00 | 0.00 | 70 | 1013.1 |
| 20260906001833 | 80 | 129 | 0.0 | 0.0 | 0.00 | 0.00 | 0.00 | 70 | 1012.9 |
| 20260906001343 | 81 | 101 | 0.0 | 0.0 | 0.00 | 0.00 | 0.00 | 69 | 1012.8 |
| 20260906000826 | 81 | 97 | 0.0 | 1.0 | 0.00 | 0.00 | 0.00 | 69 | 1012.8 |
| 20260906000340 | 81 | 95 | 0.0 | 1.0 | 0.00 | 0.00 | 0.00 | 69 | 1012.6 |
| 20260905235826 | 81 | 124 | 0.0 | 0.0 | 0.00 | 0.00 | 0.00 | 68 | 1012.8 |
| 20260905235325 | 81 | 131 | 0.0 | 0.0 | 0.00 | 0.00 | 0.00 | 68 | 1012.9 |
| 20260905234835 | 81 | 148 | 0.0 | 0.0 | 0.00 | 0.00 | 0.00 | 68 | 1013.1 |
| 20260905234359 | 82 | 135 | 0.0 | 0.0 | 0.00 | 0.00 | 0.00 | 68 | 1013.1 |
| 20260905233842 | 82 | 128 | 0.0 | 0.0 | 0.00 | 0.00 | 0.00 | 68 | 1013.0 |
| 20260905233339 | 82 | 147 | 0.0 | 0.0 | 0.00 | 0.00 | 0.00 | 68 | 1013.0 |
| 20260905232904 | 82 | 141 | 0.0 | 2.0 | 0.00 | 0.00 | 0.00 | 67 | 1013.0 |
| 20260905232329 | 82 | 121 | 0.0 | 4.0 | 0.00 | 0.00 | 0.00 | 67 | 1013.0 |
| 20260905231831 | 82 | 88 | 0.0 | 4.0 | 0.00 | 0.00 | 0.00 | 67 | 1012.9 |
| 20260905231340 | 82 | 109 | 0.0 | 4.0 | 0.00 | 0.00 | 0.00 | 67 | 1013.0 |
| 20260905230824 | 82 | 126 | 0.0 | 4.0 | 0.00 | 0.00 | 0.00 | 66 | 1013.0 |
| 20260905230339 | 82 | 78 | 0.0 | 4.0 | 0.00 | 0.00 | 0.00 | 67 | 1013.0 |
| 20260905225821 | 82 | 105 | 0.0 | 2.0 | 0.00 | 0.00 | 0.00 | 67 | 1013.1 |
| 20260905225350 | 82 | 139 | 0.0 | 2.0 | 0.00 | 0.00 | 0.00 | 67 | 1013.1 |
| 20260905224901 | 82 | 64 | 0.0 | 2.0 | 0.00 | 0.00 | 0.00 | 66 | 1013.0 |
| 20260905224342 | 82 | 178 | 0.0 | 2.0 | 0.00 | 0.00 | 0.00 | 66 | 1012.8 |
| 20260905223816 | 82 | 188 | 0.0 | 1.0 | 0.00 | 0.00 | 0.00 | 66 | 1012.7 |
| 20260905223319 | 83 | 132 | 0.0 | 1.0 | 0.00 | 0.00 | 0.00 | 67 | 1012.6 |
| 20260905222830 | 83 | 225 | 0.0 | 2.0 | 0.00 | 0.00 | 0.00 | 66 | 1012.6 |
| 20260905222334 | 83 | 119 | 0.0 | 2.0 | 0.00 | 0.00 | 0.00 | 66 | 1012.7 |
| 20260905221818 | 83 | 92 | 0.0 | 4.0 | 0.00 | 0.00 | 0.00 | 65 | 1012.7 |
| 20260905221333 | 83 | 75 | 0.0 | 4.0 | 0.00 | 0.00 | 0.00 | 65 | 1012.6 |
| 20260905220833 | 83 | 124 | 1.0 | 4.0 | 0.00 | 0.00 | 0.00 | 64 | 1012.6 |
| 20260905220338 | 83 | 80 | 0.0 | 4.0 | 0.00 | 0.00 | 0.00 | 65 | 1012.7 |
| 20260905215840 | 83 | 101 | 0.0 | 4.0 | 0.00 | 0.00 | 0.00 | 65 | 1012.8 |
| 20260905215343 | 83 | 115 | 0.0 | 4.0 | 0.00 | 0.00 | 0.00 | 66 | 1012.8 |
| 20260905214844 | 83 | 78 | 0.0 | 4.0 | 0.00 | 0.00 | 0.00 | 66 | 1012.7 |
| 20260905214329 | 83 | 89 | 0.0 | 2.0 | 0.00 | 0.00 | 0.00 | 66 | 1012.8 |
| 20260905213830 | 83 | 80 | 0.0 | 2.0 | 0.00 | 0.00 | 0.00 | 66 | 1013.0 |
| 20260905213342 | 83 | 77 | 0.0 | 2.0 | 0.00 | 0.00 | 0.00 | 67 | 1013.0 |
| 20260905212821 | 83 | 87 | 0.0 | 2.0 | 0.00 | 0.00 | 0.00 | 66 | 1013.0 |